Location: Big Prairie
(40.6673°N, 82.0952°W)
Time: 21:41:48
(UTC+00:00)

Cosmos 841 Rocket - Pass Details

Date: 01 July 2022
Orbit: 746 x 772 km, 74.0° (Epoch: 11 August)

Event Time Altitude Azimuth Distance (km) Brightness Sun altitude
Exits shadow 08:26:04 21° 239° (WSW) 1,644 4.6 -14.5°
Maximum altitude 08:28:59 38° 295° (WNW) 1,128 4.2 -14.2°
Drops below altitude 10° 08:33:47 10° 4° (N) 2,280 6.8 -13.6°
Sets 08:36:19 0° 12° (NNE) 3,213 7.8 -13.2°
